Regional Weather Roundup
Issued by NWS

Home | Current Version | Previous Version | Text Only | Print | Product List | Glossary Off
Versions: 1 2 3 4 5 6 7 8 9 10 11 12 13 14 15 16 17 18 19 20 21 22 23 24 25 26 27 28 29 30 31 32 33 34 35 36 37 38 39 40 41 42 43 44 45 46 47 48 49 50

000
ASUS43 KMKX 191611
RWRWI

WISCONSIN REGIONAL WEATHER ROUNDUP
NATIONAL WEATHER SERVICE MILWAUKEE/SULLIVAN WI
1000 AM CST FRI DEC 19 2014

NOTE: "FAIR" INDICATES FEW OR NO CLOUDS BELOW 12,000 FEET WITH NO
SIGNIFICANT WEATHER AND/OR OBSTRUCTIONS TO VISIBILITY.

WIZ001-002-006>008-014>016-023>028-191700-
NORTHWEST WISCONSIN

CITY           SKY/WX    TMP DP  RH WIND       PRES   REMARKS
SUPERIOR ARPT  CLOUDY    24  21  88 CALM      30.27S
ASHLAND        CLOUDY    23  19  85 S3        30.29S
HAYWARD        CLOUDY    22  19  89 S7        30.25S FOG     WCI  13
SIREN          CLOUDY    24  19  82 S9        30.26R WCI  14
CUMBERLAND     LGT SNOW  23  19  86 S8        30.24S WCI  14
RICE LAKE      CLOUDY    24  20  85 S6        30.28S WCI  17
CHETEK         CLOUDY    24  20  87 SE6       30.27S WCI  16
LADYSMITH      CLOUDY    24  22  93 S3        30.28S
EAU CLAIRE     CLOUDY    25  18  74 S6        30.28S WCI  18
MENOMONIE      PTSUNNY   26  19  77 SE7       30.28S WCI  18
NEW RICHMOND   CLOUDY    24  20  86 S7        30.26S WCI  16
OSCEOLA        CLOUDY    25  20  83 SE8       30.29S WCI  16
$$

WIZ003>005-009-010-017-018-191700-
NORTH CENTRAL WISCONSIN

CITY           SKY/WX    TMP DP  RH WIND       PRES   REMARKS
MANITOWISH WTR CLOUDY    18  17  98 CALM      30.24S
ARBOR VITAE    CLOUDY    19  17  90 E3        30.25S
WOODRUFF       CLOUDY    19  17  90 E3        30.25S
RHINELANDER    CLOUDY    10  10 100 CALM      30.26S FOG
EAGLE RIVER    CLOUDY    10   6  84 CALM      30.25S FOG
LAND O LAKES   LGT SNOW  10   7  90 CALM      30.26S
PHILLIPS       CLOUDY    21  18  88 S7        30.24S WCI  13
TOMAHAWK       CLOUDY    18  16  93 CALM      30.26F
MEDFORD        CLOUDY    22  19  87 SE6       30.25S WCI  14
MERRILL        CLOUDY    18  16  93 CALM      30.27S
$$

WIZ029-030-035-036-043>047-191700-
CENTRAL WISCONSIN

CITY           SKY/WX    TMP DP  RH WIND       PRES   REMARKS
WAUSAU         CLOUDY    20  17  88 CALM      30.27R
MOSINEE        NOT AVBL
MARSHFIELD     CLOUDY    24  20  84 S7        30.27R WCI  16
STEVENS POINT  CLOUDY    19  17  92 CALM      30.30S
WAUPACA        MOSUNNY   26  21  83 CALM      30.31S
WAUTOMA        CLOUDY    24  21  88 CALM      30.31F
WISC RAPIDS    CLOUDY    24  19  81 CALM      30.31R
CAMP DOUGLAS   CLOUDY    25  25 100 CALM      30.30R
$$

WIZ011>013-019>022-031-037>040-048>050-191700-
NORTHEAST WISCONSIN

CITY           SKY/WX    TMP DP  RH WIND       PRES   REMARKS
ANTIGO         SUNNY     15  13  93 CALM      30.27R
SHAWANO        SUNNY     23  19  87 CALM      30.32S
OCONTO         SUNNY     23  21  93 CALM      30.32S
STURGEON BAY   PTSUNNY   27  21  80 NW5       30.33R WCI  21
GREEN BAY      SUNNY     24  20  84 CALM      30.32S
MANITOWOC      SUNNY     29  24  82 NW3       30.31F
APPLETON       MOSUNNY   21  19  93 CALM      30.31S
CLINTONVILLE   SUNNY     23  19  86 CALM      30.31S
OSHKOSH        SUNNY     24  18  77 CALM      30.31S
$$

WIZ032>034-041-042-053>061-191700-
SOUTHWEST WISCONSIN

CITY           SKY/WX    TMP DP  RH WIND       PRES   REMARKS
LA CROSSE      CLOUDY    27  18  69 SE5       30.31S WCI  22
SPARTA         CLOUDY    25  18  74 CALM      30.31S
VIROQUA        CLOUDY    25  19  80 CALM      30.27S
BOSCOBEL       PTSUNNY   28  18  66 E3        30.32S
PRAIRIE DU CHI CLOUDY    27  19  73 SE3       30.32R
PLATTEVILLE    PTSUNNY   26  20  79 CALM      30.32R
$$

WIZ056-057-062-063-064-067-068-191700-
SOUTH CENTRAL WISCONSIN

CITY           SKY/WX    TMP DP  RH WIND       PRES   REMARKS
REEDSBURG      CLOUDY    24  20  85 CALM      30.29S
BARABOO/DELLS  CLOUDY    24  20  86 CALM      30.29S
LONE ROCK      CLOUDY    29  18  63 CALM      30.31F
MINERAL POINT  CLOUDY    28  21  74 CALM      30.29R
MADISON        CLOUDY    25  20  81 W3        30.30S
MIDDLETON      CLOUDY    26  21  80 CALM      30.31S
WATERTOWN      PTSUNNY   26  19  74 CALM      30.30S
MONROE         CLOUDY    27  23  86 N3        30.29R
JANESVILLE     CLOUDY    28  21  74 E7        30.31R WCI  21
$$

WIZ051-052-058>065-066-070>072-191700-
SOUTHEAST WISCONSIN

CITY           SKY/WX    TMP DP  RH WIND       PRES   REMARKS
MILWAUKEE      MOSUNNY   29  18  63 NW8       30.30F WCI  21
WAUKESHA       CLOUDY    25  19  80 NW5       30.31S WCI  19
MILWAUKEE/TIMM PTSUNNY   27  19  74 NW5       30.31F WCI  21
RACINE         PTSUNNY   29  18  63 NW8       30.32S WCI  21
BURLINGTON     CLOUDY    25  17  70 CALM      30.31S
KENOSHA        CLOUDY    28  18  66 NW6       30.31R WCI  22
FOND DU LAC    SUNNY     25  20  81 CALM      30.31S
SHEBOYGAN      CLOUDY    27  20  75 NW7       30.30F WCI  19
WEST BEND      CLOUDY    27  21  80 NW5       30.30S WCI  21
JUNEAU         MOSUNNY   26  19  74 CALM      30.31S
$$

LSZ147-162-191700-
LAKE SUPERIOR

STATION/POSITION TIME  TEMP    WIND        PRES    WAVE
                       AIR SEA DIR/SP/G            HT/PER
                 (UTC) (F)     (DEG/KT/KT) (MB)    (FT/S)
DEVILS ISLAND    1600   24     190/  5/  5 1026.9S
PORT WING        1500   23      CALM  /  3 1025.4
SAXON HARBOR     1500   23        CALM     1025.4S
$$

LMZ867-665-643>646-191700-
LAKE MICHIGAN

STATION/POSITION TIME  TEMP    WIND        PRES    WAVE
                       AIR SEA DIR/SP/G            HT/PER
                 (UTC) (F)     (DEG/KT/KT) (MB)    (FT/S)
CHAMBERS ISLAND  1500   31     320/  4/  5 1026.8R
NORTHPORT PIER   1506   28     340/  6/  8 1026.4R
SISTER BAY       1513          360/  8/  9   N/A
ALGOMA LAKESHORE 1514          330/  7/  9   N/A
KEWAUNEE LAKESHO 1500   23     290/  1/  4 1025.5R
SHEBOYGAN LAKESH 1600   28 33  310/  8/  9 1027.2F
PORT WASHINGTON  1500   26     300/  6/  9 1027.1R
MILWAUKEE LAKESH 1500   26     280/  5/  6   N/A
KENOSHA   LAKESH 1600   28     330/  7/  9 1026.4S
$$

TC  - TEMPERATURE IN CELSIUS
VSB - VISIBILITY IN STATUTE MILES
WCI - WIND CHILL INDEX
HX  - HEAT INDEX




USA.gov is the U.S. government's official web portal to all federal, state and local government web resources and services.